Regional Weather Roundup
Issued by NWS

Home | Current Version | Previous Version | Text Only | Print | Product List | Glossary On
Versions: 1 2 3 4 5 6 7 8 9 10 11 12 13 14 15 16 17 18 19 20 21 22 23 24 25 26 27 28 29 30 31 32 33 34 35 36 37 38 39 40 41 42 43 44 45 46 47 48 49 50
000
ASUS42 KFFC 272010
RWRGA
WEATHER ROUNDUP FOR GEORGIA
NATIONAL WEATHER SERVICE PEACHTREE CITY GA
400 PM EDT SAT MAY 27 2017

NOTE: "FAIR" INDICATES FEW OR NO CLOUDS BELOW 12,000 FEET WITH NO
SIGNIFICANT WEATHER AND/OR OBSTRUCTIONS TO VISIBILITY.

* = USE WITH CAUTION. THE STATIONS MARKED WITH AN ASTERISK MAY NOT
REPORT WEATHER SUCH AS PRECIPITATION, FOG, OR THUNDER AND ARE NOT
QUALITY CONTROLLED BY NWS.

THE REMARK "TC" DENOTES TEMPERATURE READING IN DEGREES CELSIUS.

GAZ001>058-272100-
NORTH GEORGIA

CITY           SKY/WX    TMP DP  RH WIND       PRES   REMARKS
ATLANTA        PTSUNNY   83  66  56 SW9       30.01F
ATHENS         MOSUNNY   84  67  56 VRB6      29.98F
CHAMBLEE       PTSUNNY   82  65  56 SW9       30.00F
PEACHTREE CITY MOSUNNY   83  66  56 SW8       30.03F
ROME           PTSUNNY   84  69  60 VRB7      29.97F
WEST ATLANTA   MOSUNNY   84  68  58 SW9G17    29.99F
GAINESVILLE    MOSUNNY   83  66  56 SW9G17    30.01F
CARTERSVILLE   MOSUNNY   82  68  62 MISG      29.99F


CITY           SKY/WX    TMP DP  RH WIND       PRES   REMARKS
DALTON*        PTSUNNY   81  68  65 S6        29.98S
LAWRENCEVILLE* PTSUNNY   84  66  54 W12       30.00F
MARIETTA       PTSUNNY   83  66  55 SW7G20    29.99F
KENNESAW*      MOSUNNY   86  64  48 SW15      30.00F
CANTON*        SUNNY     81  57  44 SW8       30.02F
$$

GAZ059>098-102>109-272100-
CENTRAL GEORGIA

CITY           SKY/WX    TMP DP  RH WIND       PRES   REMARKS
AUGUSTA-BUSH   SUNNY     93  59  31 SW13G20   29.95F HX  92
AUGUSTA-DANIEL SUNNY     91  54  28 W10G20    29.97F
COLUMBUS       PTSUNNY   85  66  53 W8        30.02F
MACON          SUNNY     88  53  30 W12       30.00F
ROBINS AFB     SUNNY     89  56  31 SW9G18    29.99F


CITY           SKY/WX    TMP DP  RH WIND       PRES   REMARKS
LAGRANGE*      CLOUDY    81  74  79 SW8       30.04S
SYLVANIA*      SUNNY     91  63  39 W9G18     29.99F HX  92
MILLEDGEVILLE* SUNNY     88  57  35 W8        29.99F
$$

GAZ099>101-110>166-272100-
SOUTH GEORGIA

CITY           SKY/WX    TMP DP  RH WIND       PRES   REMARKS
SAVANNAH       MOSUNNY   94  60  32 W15       29.98F HX  94
VALDOSTA       SUNNY     89  60  37 W6        30.03F
ALMA           SUNNY     91  58  32 SW12      30.01F HX  90
ST SIMONS      SUNNY     85  67  54 SE12      30.00F
FT STEWART     SUNNY     91  58  32 NW13      29.97F HX  90
ALBANY         SUNNY     88  64  44 W7        30.05F
HUNTER AFB     SUNNY     92  71  49 W10G17    29.96F HX  98
MOODY AFB      MOSUNNY   91  59  33 W6        30.02F HX  90
BRUNSWICK      SUNNY     91  63  38 SW8G16    30.00F HX  92


CITY           SKY/WX    TMP DP  RH WIND       PRES   REMARKS
BAINBRIDGE*    SUNNY     88  64  45 W8        30.05F
MOULTRIE*      SUNNY     90  54  29 W9        30.05F
VIDALIA*       SUNNY     90  61  37 W8        30.01F
WAYCROSS*      SUNNY     94  66  39 W12       30.01F HX  97
DOUGLAS*       SUNNY     90  55  31 W12       30.03F
$$



USA.gov is the U.S. government's official web portal to all federal, state and local government web resources and services.